LUCH 5A (SDCM/PRN 140)

Last updated on Oct. 25, 2020, 5:57 a.m. UTC

1 37951U 11074B   20298.86894688 -.00000056  00000-0  00000+0 0  9997
2 37951   3.5541 111.2326 0002651  63.7041 338.6309  1.00274720 32523
UTC
Height (km)
Latitude
Longitude
Inclination
Orbital Period
UTC large
Height (km)
Speed (km/s)
/
Latitude / Longitude
Inclination (degrees)
Orbital Period (minutes)
Azimuth
Elevation
Range (km)
Doppler Factor
iOS Compass Heading
iOS Angle

Next 30 passes for location: Hong Kong

Rise time Rise Azimuth (degrees) Set time Set Azimuth (degrees) Duration Max altitude (degrees)

No matching passes for this satellites